| time (UTC) | temp F | wind direction | speed MPH | gust MPH | rain 1hr in | rain 24hr in | rain mn in | humidity % | barometer mb |
| 20260903163647 | 90 | 185 | 10.0 | 16.0 | 0.00 | 0.00 | 0.00 | 56 | |
| 20260903163144 | 89 | 190 | 6.0 | 9.0 | 0.00 | 0.00 | 0.00 | 57 | |
| 20260903162639 | 89 | 228 | 6.0 | 13.0 | 0.00 | 0.00 | 0.00 | 59 | |
| 20260903162135 | 90 | 192 | 6.0 | 11.0 | 0.00 | 0.00 | 0.00 | 59 | |
| 20260903161630 | 90 | 192 | 9.0 | 10.0 | 0.00 | 0.00 | 0.00 | 59 | |
| 20260903161126 | 90 | 221 | 5.0 | 9.0 | 0.00 | 0.00 | 0.00 | 58 | |
| 20260903160621 | 89 | 221 | 6.0 | 10.0 | 0.00 | 0.00 | 0.00 | 59 | |
| 20260903160115 | 88 | 219 | 5.0 | 10.0 | 0.00 | 0.00 | 0.00 | 62 | |
| 20260903155614 | 88 | 197 | 6.0 | 11.0 | 0.00 | 0.00 | 0.00 | 62 | |
| 20260903155109 | 88 | 232 | 6.0 | 9.0 | 0.00 | 0.00 | 0.00 | 63 | |
| 20260903154559 | 88 | 229 | 5.0 | 9.0 | 0.00 | 0.00 | 0.00 | 63 | |
| 20260903154056 | 87 | 247 | 9.0 | 13.0 | 0.00 | 0.00 | 0.00 | 63 | |
| 20260903153550 | 86 | 230 | 9.0 | 13.0 | 0.00 | 0.00 | 0.00 | 65 | |
| 20260903153046 | 87 | 222 | 6.0 | 13.0 | 0.00 | 0.00 | 0.00 | 66 | |
| 20260903152542 | 87 | 248 | 5.0 | 10.0 | 0.00 | 0.00 | 0.00 | 66 | |
| 20260903152038 | 86 | 183 | 7.0 | 15.0 | 0.00 | 0.00 | 0.00 | 67 | |
| 20260903151537 | 86 | 171 | 9.0 | 14.0 | 0.00 | 0.00 | 0.00 | 66 | |
| 20260903151027 | 85 | 155 | 10.0 | 13.0 | 0.00 | 0.00 | 0.00 | 68 | |
| 20260903150526 | 85 | 186 | 11.0 | 18.0 | 0.00 | 0.00 | 0.00 | 69 | |
| 20260903150022 | 84 | 216 | 9.0 | 15.0 | 0.00 | 0.00 | 0.00 | 70 | |
| 20260903145516 | 84 | 229 | 14.0 | 22.0 | 0.00 | 0.00 | 0.00 | 71 | |
| 20260903145012 | 84 | 215 | 13.0 | 15.0 | 0.00 | 0.00 | 0.00 | 71 | |
| 20260903144510 | 84 | 250 | 6.0 | 18.0 | 0.00 | 0.00 | 0.00 | 72 | |
| 20260903144006 | 84 | 173 | 9.0 | 13.0 | 0.00 | 0.00 | 0.00 | 73 | |
| 20260903143503 | 83 | 228 | 9.0 | 14.0 | 0.00 | 0.00 | 0.00 | 74 | |
| 20260903142958 | 83 | 195 | 15.0 | 21.0 | 0.00 | 0.00 | 0.00 | 74 | |
| 20260903142453 | 83 | 217 | 8.0 | 16.0 | 0.00 | 0.00 | 0.00 | 75 | |
| 20260903141949 | 83 | 207 | 11.0 | 16.0 | 0.00 | 0.00 | 0.00 | 76 | |
| 20260903141445 | 82 | 243 | 5.0 | 16.0 | 0.00 | 0.00 | 0.00 | 77 | |
| 20260903140940 | 83 | 240 | 4.0 | 15.0 | 0.00 | 0.00 | 0.00 | 77 | |
| 20260903140435 | 82 | 220 | 7.0 | 8.0 | 0.00 | 0.00 | 0.00 | 79 | |
| 20260903135930 | 81 | 224 | 9.0 | 14.0 | 0.00 | 0.00 | 0.00 | 80 | |
| 20260903135427 | 81 | 224 | 9.0 | 14.0 | 0.00 | 0.00 | 0.00 | 80 | |
| 20260903134921 | 81 | 224 | 13.0 | 18.0 | 0.00 | 0.00 | 0.00 | 80 | |
| 20260903134420 | 81 | 214 | 7.0 | 9.0 | 0.00 | 0.00 | 0.00 | 81 | |
| 20260903133918 | 81 | 202 | 11.0 | 16.0 | 0.00 | 0.00 | 0.00 | 81 | |
| 20260903133414 | 80 | 215 | 5.0 | 14.0 | 0.00 | 0.00 | 0.00 | 82 | |
| 20260903132909 | 81 | 199 | 9.0 | 14.0 | 0.00 | 0.00 | 0.00 | 82 | |
| 20260903132404 | 80 | 197 | 6.0 | 10.0 | 0.00 | 0.00 | 0.00 | 82 | |
| 20260903131859 | 80 | 147 | 9.0 | 14.0 | 0.00 | 0.00 | 0.00 | 82 | |
| 20260903131358 | 80 | 198 | 9.0 | 11.0 | 0.00 | 0.00 | 0.00 | 83 | |
| 20260903130858 | 80 | 203 | 9.0 | 14.0 | 0.00 | 0.00 | 0.00 | 84 | |
| 20260903130353 | 80 | 185 | 7.0 | 11.0 | 0.00 | 0.00 | 0.00 | 84 | |
| 20260903125852 | 80 | 207 | 3.0 | 7.0 | 0.00 | 0.00 | 0.00 | 84 | |
| 20260903125347 | 80 | 178 | 8.0 | 10.0 | 0.00 | 0.00 | 0.00 | 84 | |
| 20260903124846 | 80 | 219 | 4.0 | 13.0 | 0.00 | 0.00 | 0.00 | 84 | |
| 20260903124342 | 79 | 181 | 7.0 | 15.0 | 0.00 | 0.00 | 0.00 | 84 | |
| 20260903123840 | 79 | 214 | 7.0 | 9.0 | 0.00 | 0.00 | 0.00 | 85 | |
| 20260903123335 | 79 | 189 | 8.0 | 13.0 | 0.00 | 0.00 | 0.00 | 85 | |
| 20260903122834 | 79 | 233 | 6.0 | 9.0 | 0.00 | 0.00 | 0.00 | 85 | |
| 20260903122329 | 79 | 186 | 7.0 | 13.0 | 0.00 | 0.00 | 0.00 | 85 | |
| 20260903121827 | 79 | 183 | 7.0 | 13.0 | 0.00 | 0.00 | 0.00 | 86 | |
| 20260903121323 | 79 | 193 | 8.0 | 10.0 | 0.00 | 0.00 | 0.00 | 85 | |
| 20260903120818 | 79 | 182 | 5.0 | 13.0 | 0.00 | 0.00 | 0.00 | 85 | |
| 20260903120312 | 79 | 257 | 5.0 | 16.0 | 0.00 | 0.00 | 0.00 | 85 | |
| 20260903115810 | 79 | 138 | 5.0 | 13.0 | 0.00 | 0.00 | 0.00 | 85 | |
| 20260903115306 | 79 | 189 | 4.0 | 13.0 | 0.00 | 0.00 | 0.00 | 85 | |
| 20260903114805 | 79 | 199 | 8.0 | 11.0 | 0.00 | 0.00 | 0.00 | 85 | |
| 20260903114301 | 79 | 137 | 7.0 | 13.0 | 0.00 | 0.00 | 0.00 | 85 | |
| 20260903113756 | 79 | 185 | 6.0 | 9.0 | 0.00 | 0.00 | 0.00 | 86 | |
| 20260903113252 | 79 | 183 | 7.0 | 11.0 | 0.00 | 0.00 | 0.00 | 86 | |
| 20260903112748 | 79 | 210 | 5.0 | 9.0 | 0.00 | 0.00 | 0.00 | 86 | |
| 20260903112243 | 79 | 182 | 6.0 | 11.0 | 0.00 | 0.00 | 0.00 | 86 | |
| 20260903111742 | 79 | 187 | 7.0 | 10.0 | 0.00 | 0.00 | 0.00 | 86 | |
| 20260903111237 | 79 | 206 | 10.0 | 11.0 | 0.00 | 0.00 | 0.00 | 86 | |
| 20260903110733 | 79 | 180 | 7.0 | 14.0 | 0.00 | 0.00 | 0.00 | 86 | |
| 20260903110229 | 79 | 206 | 9.0 | 11.0 | 0.00 | 0.00 | 0.00 | 86 | |
| 20260903105728 | 79 | 223 | 9.0 | 14.0 | 0.00 | 0.00 | 0.00 | 86 | |
| 20260903105224 | 79 | 186 | 9.0 | 14.0 | 0.00 | 0.00 | 0.00 | 86 | |
| 20260903104723 | 79 | 192 | 7.0 | 13.0 | 0.00 | 0.00 | 0.00 | 86 | |
| 20260903104218 | 79 | 191 | 8.0 | 10.0 | 0.00 | 0.00 | 0.00 | 87 | |
| 20260903103714 | 79 | 188 | 7.0 | 16.0 | 0.00 | 0.00 | 0.00 | 87 | |
| 20260903103211 | 79 | 194 | 9.0 | 13.0 | 0.00 | 0.00 | 0.00 | 88 | |
| 20260903102706 | 78 | 189 | 9.0 | 10.0 | 0.00 | 0.00 | 0.00 | 88 | |
| 20260903102205 | 78 | 154 | 7.0 | 10.0 | 0.00 | 0.00 | 0.00 | 88 | |
| 20260903101658 | 78 | 191 | 4.0 | 13.0 | 0.00 | 0.00 | 0.00 | 88 | |
| 20260903101154 | 78 | 160 | 5.0 | 8.0 | 0.00 | 0.00 | 0.00 | 88 | |
| 20260903100654 | 78 | 196 | 3.0 | 7.0 | 0.00 | 0.00 | 0.00 | 88 | |
| 20260903100154 | 78 | 171 | 5.0 | 9.0 | 0.00 | 0.00 | 0.00 | 88 | |
| 20260903095651 | 78 | 195 | 5.0 | 8.0 | 0.00 | 0.00 | 0.00 | 88 | |
| 20260903095146 | 78 | 201 | 6.0 | 10.0 | 0.00 | 0.00 | 0.00 | 88 | |
| 20260903094641 | 78 | 174 | 4.0 | 10.0 | 0.00 | 0.00 | 0.00 | 88 | |
| 20260903094137 | 78 | 183 | 6.0 | 8.0 | 0.00 | 0.00 | 0.00 | 88 | |
| 20260903093632 | 78 | 194 | 8.0 | 9.0 | 0.00 | 0.00 | 0.00 | 88 | |
| 20260903093127 | 78 | 157 | 5.0 | 9.0 | 0.00 | 0.00 | 0.00 | 88 | |
| 20260903092627 | 78 | 179 | 6.0 | 13.0 | 0.00 | 0.00 | 0.00 | 88 | |
| 20260903092122 | 78 | 185 | 6.0 | 9.0 | 0.00 | 0.00 | 0.00 | 88 | |
| 20260903091620 | 78 | 191 | 8.0 | 13.0 | 0.00 | 0.00 | 0.00 | 88 | |
| 20260903091114 | 78 | 188 | 8.0 | 11.0 | 0.00 | 0.00 | 0.00 | 88 | |
| 20260903090611 | 78 | 176 | 6.0 | 13.0 | 0.00 | 0.00 | 0.00 | 88 | |
| 20260903090109 | 78 | 174 | 9.0 | 11.0 | 0.00 | 0.00 | 0.00 | 88 | |
| 20260903085608 | 78 | 198 | 6.0 | 10.0 | 0.00 | 0.00 | 0.00 | 87 | |
| 20260903085104 | 78 | 201 | 9.0 | 10.0 | 0.00 | 0.00 | 0.00 | 87 | |
| 20260903084601 | 78 | 196 | 7.0 | 13.0 | 0.00 | 0.00 | 0.00 | 87 | |
| 20260903084056 | 78 | 179 | 7.0 | 11.0 | 0.00 | 0.00 | 0.00 | 87 | |
| 20260903083552 | 78 | 167 | 9.0 | 9.0 | 0.00 | 0.00 | 0.00 | 87 | |
| 20260903083052 | 78 | 181 | 5.0 | 10.0 | 0.00 | 0.00 | 0.00 | 86 | |
| 20260903082546 | 78 | 192 | 9.0 | 11.0 | 0.00 | 0.00 | 0.00 | 86 | |
| 20260903082042 | 78 | 183 | 6.0 | 9.0 | 0.00 | 0.00 | 0.00 | 86 | |
| 20260903081537 | 78 | 184 | 8.0 | 10.0 | 0.00 | 0.00 | 0.00 | 86 | |
| 20260903081033 | 78 | 192 | 7.0 | 10.0 | 0.00 | 0.00 | 0.00 | 85 | |
| 20260903080529 | 78 | 198 | 4.0 | 9.0 | 0.00 | 0.00 | 0.00 | 85 | |
| 20260903080026 | 79 | 203 | 8.0 | 10.0 | 0.00 | 0.00 | 0.00 | 85 | |
| 20260903075520 | 79 | 240 | 8.0 | 10.0 | 0.00 | 0.00 | 0.00 | 85 | |
| 20260903075015 | 79 | 192 | 7.0 | 14.0 | 0.00 | 0.00 | 0.00 | 84 | |
| 20260903074515 | 79 | 187 | 9.0 | 15.0 | 0.00 | 0.00 | 0.00 | 84 | |
| 20260903074009 | 79 | 186 | 9.0 | 13.0 | 0.00 | 0.00 | 0.00 | 84 | |
| 20260903073504 | 79 | 190 | 6.0 | 10.0 | 0.00 | 0.00 | 0.00 | 84 | |
| 20260903073000 | 79 | 218 | 5.0 | 7.0 | 0.00 | 0.00 | 0.00 | 83 | |
| 20260903072456 | 79 | 145 | 6.0 | 11.0 | 0.00 | 0.00 | 0.00 | 83 | |
| 20260903071953 | 79 | 182 | 3.0 | 8.0 | 0.00 | 0.00 | 0.00 | 83 | |
| 20260903071448 | 79 | 179 | 5.0 | 11.0 | 0.00 | 0.00 | 0.00 | 82 | |
| 20260903070944 | 79 | 194 | 5.0 | 9.0 | 0.00 | 0.00 | 0.00 | 82 | |
| 20260903070444 | 80 | 149 | 3.0 | 10.0 | 0.00 | 0.00 | 0.00 | 81 | |
| 20260903065944 | 80 | 134 | 6.0 | 10.0 | 0.00 | 0.00 | 0.00 | 81 | |
| 20260903065439 | 80 | 204 | 5.0 | 8.0 | 0.00 | 0.00 | 0.00 | 80 | |
| 20260903064938 | 80 | 194 | 5.0 | 11.0 | 0.00 | 0.00 | 0.00 | 79 | |
| 20260903064432 | 80 | 170 | 7.0 | 10.0 | 0.00 | 0.00 | 0.00 | 79 | |
| 20260903063928 | 80 | 179 | 5.0 | 9.0 | 0.00 | 0.00 | 0.00 | 78 | |
| 20260903063424 | 80 | 198 | 7.0 | 13.0 | 0.00 | 0.00 | 0.00 | 77 | |
| 20260903062920 | 80 | 169 | 6.0 | 10.0 | 0.00 | 0.00 | 0.00 | 76 | |
| 20260903062420 | 81 | 166 | 8.0 | 10.0 | 0.00 | 0.00 | 0.00 | 75 | |
| 20260903061915 | 81 | 189 | 7.0 | 10.0 | 0.00 | 0.00 | 0.00 | 74 | |
| 20260903061415 | 81 | 206 | 5.0 | 13.0 | 0.00 | 0.00 | 0.00 | 73 | |
| 20260903060911 | 81 | 143 | 7.0 | 11.0 | 0.00 | 0.00 | 0.00 | 72 | |
| 20260903060410 | 81 | 176 | 6.0 | 9.0 | 0.00 | 0.00 | 0.00 | 71 | |
| 20260903055909 | 82 | 167 | 5.0 | 13.0 | 0.00 | 0.00 | 0.00 | 70 | |
| 20260903055407 | 82 | 191 | 9.0 | 13.0 | 0.00 | 0.00 | 0.00 | 70 | |
| 20260903054902 | 82 | 167 | 10.0 | 14.0 | 0.00 | 0.00 | 0.00 | 69 | |
| 20260903054402 | 82 | 168 | 10.0 | 13.0 | 0.00 | 0.00 | 0.00 | 69 | |
| 20260903053858 | 83 | 193 | 10.0 | 14.0 | 0.00 | 0.00 | 0.00 | 68 | |
| 20260903053353 | 83 | 172 | 7.0 | 11.0 | 0.00 | 0.00 | 0.00 | 67 | |
| 20260903052849 | 83 | 122 | 3.0 | 11.0 | 0.00 | 0.00 | 0.00 | 67 | |
| 20260903052344 | 84 | 161 | 7.0 | 15.0 | 0.00 | 0.00 | 0.00 | 66 | |
| 20260903051840 | 84 | 202 | 7.0 | 18.0 | 0.00 | 0.00 | 0.00 | 66 | |
| 20260903051335 | 84 | 199 | 4.0 | 11.0 | 0.00 | 0.00 | 0.00 | 66 | |
| 20260903050831 | 84 | 127 | 7.0 | 13.0 | 0.00 | 0.00 | 0.00 | 65 | |
| 20260903050329 | 84 | 156 | 11.0 | 15.0 | 0.00 | 0.00 | 0.00 | 65 | |
| 20260903045824 | 84 | 140 | 5.0 | 13.0 | 0.00 | 0.00 | 0.00 | 64 | |
| 20260903045320 | 84 | 133 | 10.0 | 14.0 | 0.00 | 0.00 | 0.00 | 64 | |
| 20260903044817 | 84 | 160 | 6.0 | 9.0 | 0.00 | 0.00 | 0.00 | 64 | |
| 20260903044312 | 84 | 132 | 6.0 | 10.0 | 0.00 | 0.00 | 0.00 | 64 | |
| 20260903043808 | 84 | 147 | 3.0 | 9.0 | 0.00 | 0.00 | 0.00 | 64 | |
| 20260903043308 | 85 | 117 | 6.0 | 11.0 | 0.00 | 0.00 | 0.00 | 63 | |
| 20260903042807 | 85 | 148 | 8.0 | 11.0 | 0.00 | 0.00 | 0.00 | 63 | |
| 20260903042305 | 85 | 134 | 10.0 | 11.0 | 0.00 | 0.00 | 0.00 | 63 | |
| 20260903041759 | 85 | 186 | 7.0 | 14.0 | 0.00 | 0.00 | 0.00 | 62 | |
| 20260903041254 | 85 | 132 | 8.0 | 11.0 | 0.00 | 0.00 | 0.00 | 62 | |
| 20260903040749 | 85 | 142 | 9.0 | 10.0 | 0.00 | 0.00 | 0.00 | 62 | |
| 20260903040249 | 85 | 151 | 7.0 | 9.0 | 0.00 | 0.00 | 0.00 | 61 | |
| 20260903035745 | 85 | 115 | 8.0 | 11.0 | 0.00 | 0.00 | 0.00 | 61 | |
| 20260903035240 | 86 | 141 | 6.0 | 10.0 | 0.00 | 0.00 | 0.00 | 60 | |
| 20260903034741 | 86 | 111 | 10.0 | 14.0 | 0.00 | 0.00 | 0.00 | 59 | |
| 20260903034236 | 86 | 145 | 7.0 | 11.0 | 0.00 | 0.00 | 0.00 | 58 | |
| 20260903033731 | 86 | 123 | 9.0 | 16.0 | 0.00 | 0.00 | 0.00 | 58 | |
| 20260903033226 | 87 | 135 | 7.0 | 13.0 | 0.00 | 0.00 | 0.00 | 57 | |
| 20260903032720 | 87 | 123 | 13.0 | 16.0 | 0.00 | 0.00 | 0.00 | 56 | |
| 20260903032217 | 87 | 135 | 7.0 | 9.0 | 0.00 | 0.00 | 0.00 | 56 | |
| 20260903031712 | 87 | 111 | 4.0 | 6.0 | 0.00 | 0.00 | 0.00 | 57 | |
| 20260903031211 | 87 | 85 | 5.0 | 6.0 | 0.00 | 0.00 | 0.00 | 57 | |
| 20260903030708 | 87 | 63 | 3.0 | 5.0 | 0.00 | 0.00 | 0.00 | 57 | |
| 20260903030203 | 87 | 83 | 4.0 | 6.0 | 0.00 | 0.00 | 0.00 | 56 | |
| 20260903025658 | 87 | 98 | 3.0 | 5.0 | 0.00 | 0.00 | 0.00 | 56 | |
| 20260903025154 | 87 | 118 | 4.0 | 5.0 | 0.00 | 0.00 | 0.00 | 56 | |
| 20260903024648 | 87 | 134 | 2.0 | 5.0 | 0.00 | 0.00 | 0.00 | 56 | |
| 20260903024147 | 87 | 100 | 2.0 | 5.0 | 0.00 | 0.00 | 0.00 | 55 | |
| 20260903023644 | 88 | 106 | 5.0 | 6.0 | 0.00 | 0.00 | 0.00 | 55 | |
| 20260903023144 | 88 | 137 | 4.0 | 7.0 | 0.00 | 0.00 | 0.00 | 54 | |
| 20260903022638 | 88 | 107 | 2.0 | 5.0 | 0.00 | 0.00 | 0.00 | 54 | |
| 20260903022137 | 88 | 118 | 3.0 | 6.0 | 0.00 | 0.00 | 0.00 | 53 | |
| 20260903021638 | 89 | 139 | 4.0 | 6.0 | 0.00 | 0.00 | 0.00 | 53 | |
| 20260903021132 | 89 | 135 | 3.0 | 3.0 | 0.00 | 0.00 | 0.00 | 53 | |
| 20260903020627 | 89 | 108 | 1.0 | 3.0 | 0.00 | 0.00 | 0.00 | 53 | |
| 20260903020122 | 89 | 89 | 1.0 | 6.0 | 0.00 | 0.00 | 0.00 | 52 | |
| 20260903015617 | 89 | 64 | 2.0 | 2.0 | 0.00 | 0.00 | 0.00 | 52 | |
| 20260903015113 | 88 | 111 | 1.0 | 1.0 | 0.00 | 0.00 | 0.00 | 54 | |
| 20260903014613 | 88 | 172 | 0.0 | 1.0 | 0.00 | 0.00 | 0.00 | 53 | |
| 20260903014113 | 89 | 174 | 1.0 | 1.0 | 0.00 | 0.00 | 0.00 | 52 | |
| 20260903013613 | 90 | 87 | 0.0 | 0.0 | 0.00 | 0.00 | 0.00 | 50 | |
| 20260903013107 | 91 | 79 | 0.0 | 1.0 | 0.00 | 0.00 | 0.00 | 49 | |
| 20260903012606 | 91 | 96 | 1.0 | 1.0 | 0.00 | 0.00 | 0.00 | 48 | |
| 20260903012105 | 92 | 102 | 1.0 | 2.0 | 0.00 | 0.00 | 0.00 | 48 | |
| 20260903011600 | 92 | 109 | 1.0 | 2.0 | 0.00 | 0.00 | 0.00 | 47 | |
| 20260903011100 | 92 | 102 | 1.0 | 2.0 | 0.00 | 0.00 | 0.00 | 47 | |
| 20260903010555 | 92 | 111 | 2.0 | 2.0 | 0.00 | 0.00 | 0.00 | 46 | |
| 20260903010054 | 93 | 92 | 2.0 | 3.0 | 0.00 | 0.00 | 0.00 | 46 | |
| 20260903005554 | 93 | 103 | 2.0 | 3.0 | 0.00 | 0.00 | 0.00 | 45 | |
| 20260903005049 | 93 | 98 | 3.0 | 3.0 | 0.00 | 0.00 | 0.00 | 45 | |
| 20260903004544 | 94 | 125 | 3.0 | 3.0 | 0.00 | 0.00 | 0.00 | 44 | |
| 20260903004040 | 94 | 104 | 2.0 | 3.0 | 0.00 | 0.00 | 0.00 | 44 | |
| 20260903003535 | 95 | 103 | 2.0 | 2.0 | 0.00 | 0.00 | 0.00 | 43 | |
| 20260903003030 | 95 | 110 | 2.0 | 5.0 | 0.00 | 0.00 | 0.00 | 42 | |
| 20260903002525 | 96 | 131 | 2.0 | 6.0 | 0.00 | 0.00 | 0.00 | 42 | |
| 20260903002019 | 96 | 116 | 1.0 | 2.0 | 0.00 | 0.00 | 0.00 | 42 | |
| 20260903001514 | 96 | 106 | 4.0 | 6.0 | 0.00 | 0.00 | 0.00 | 42 | |
| 20260903001013 | 96 | 121 | 3.0 | 5.0 | 0.00 | 0.00 | 0.00 | 42 | |
| 20260903000509 | 96 | 130 | 4.0 | 7.0 | 0.00 | 0.00 | 0.00 | 41 | |
| 20260903000008 | 97 | 136 | 5.0 | 6.0 | 0.00 | 0.00 | 0.00 | 41 | |
| 20260902235502 | 97 | 119 | 3.0 | 5.0 | 0.00 | 0.00 | 0.00 | 41 | |
| 20260902234957 | 97 | 155 | 4.0 | 5.0 | 0.00 | 0.00 | 0.00 | 40 | |
| 20260902234451 | 97 | 171 | 2.0 | 5.0 | 0.00 | 0.00 | 0.00 | 40 | |
| 20260902233950 | 97 | 121 | 5.0 | 6.0 | 0.00 | 0.00 | 0.00 | 40 | |
| 20260902233449 | 97 | 112 | 7.0 | 8.0 | 0.00 | 0.00 | 0.00 | 40 | |
| 20260902232944 | 97 | 135 | 4.0 | 7.0 | 0.00 | 0.00 | 0.00 | 40 | |
| 20260902232439 | 97 | 152 | 6.0 | 7.0 | 0.00 | 0.00 | 0.00 | 40 | |
| 20260902231938 | 97 | 161 | 3.0 | 6.0 | 0.00 | 0.00 | 0.00 | 41 | |
| 20260902231433 | 98 | 152 | 3.0 | 5.0 | 0.00 | 0.00 | 0.00 | 40 | |
| 20260902230928 | 97 | 104 | 3.0 | 5.0 | 0.00 | 0.00 | 0.00 | 41 | |
| 20260902230428 | 97 | 106 | 3.0 | 3.0 | 0.00 | 0.00 | 0.00 | 40 | |
| 20260902225922 | 97 | 85 | 1.0 | 5.0 | 0.00 | 0.00 | 0.00 | 40 | |
| 20260902225417 | 97 | 152 | 5.0 | 6.0 | 0.00 | 0.00 | 0.00 | 41 | |
| 20260902224916 | 96 | 120 | 6.0 | 7.0 | 0.00 | 0.00 | 0.00 | 41 | |
| 20260902224415 | 96 | 140 | 5.0 | 8.0 | 0.00 | 0.00 | 0.00 | 41 | |
| 20260902223913 | 97 | 140 | 5.0 | 9.0 | 0.00 | 0.00 | 0.00 | 41 | |
| 20260902223413 | 96 | 118 | 7.0 | 10.0 | 0.00 | 0.00 | 0.00 | 42 | |
| 20260902222908 | 97 | 158 | 8.0 | 11.0 | 0.00 | 0.00 | 0.00 | 41 | |
| 20260902222406 | 97 | 161 | 4.0 | 7.0 | 0.00 | 0.00 | 0.00 | 42 | |
| 20260902221905 | 97 | 144 | 5.0 | 9.0 | 0.00 | 0.00 | 0.00 | 42 | |
| 20260902221405 | 97 | 132 | 4.0 | 8.0 | 0.00 | 0.00 | 0.00 | 43 | |
| 20260902220900 | 96 | 126 | 5.0 | 9.0 | 0.00 | 0.00 | 0.00 | 44 | |
| 20260902220400 | 96 | 137 | 7.0 | 10.0 | 0.00 | 0.00 | 0.00 | 45 | |
| 20260902215855 | 95 | 141 | 7.0 | 9.0 | 0.00 | 0.00 | 0.00 | 44 | |
| 20260902215350 | 95 | 114 | 5.0 | 9.0 | 0.00 | 0.00 | 0.00 | 46 | |
| 20260902214846 | 94 | 155 | 4.0 | 9.0 | 0.00 | 0.00 | 0.00 | 48 | |
| 20260902214345 | 95 | 129 | 5.0 | 10.0 | 0.00 | 0.00 | 0.00 | 48 | |
| 20260902213840 | 95 | 140 | 4.0 | 11.0 | 0.00 | 0.00 | 0.00 | 48 | |
| 20260902213336 | 95 | 181 | 4.0 | 8.0 | 0.00 | 0.00 | 0.00 | 48 | |
| 20260902212834 | 95 | 174 | 7.0 | 9.0 | 0.00 | 0.00 | 0.00 | 47 | |
| 20260902212331 | 94 | 149 | 6.0 | 9.0 | 0.00 | 0.00 | 0.00 | 48 | |
| 20260902211827 | 95 | 140 | 7.0 | 9.0 | 0.00 | 0.00 | 0.00 | 48 | |
| 20260902211322 | 96 | 142 | 10.0 | 11.0 | 0.00 | 0.00 | 0.00 | 45 | |
| 20260902210818 | 95 | 139 | 6.0 | 8.0 | 0.00 | 0.00 | 0.00 | 44 | |
| 20260902210312 | 96 | 174 | 6.0 | 9.0 | 0.00 | 0.00 | 0.00 | 43 | |
| 20260902205810 | 95 | 171 | 5.0 | 9.0 | 0.00 | 0.00 | 0.00 | 43 | |
| 20260902205306 | 95 | 146 | 6.0 | 10.0 | 0.00 | 0.00 | 0.00 | 44 | |
| 20260902204800 | 94 | 135 | 3.0 | 7.0 | 0.00 | 0.00 | 0.00 | 45 | |
| 20260902204255 | 95 | 125 | 5.0 | 9.0 | 0.00 | 0.00 | 0.00 | 44 | |
| 20260902203751 | 94 | 138 | 7.0 | 9.0 | 0.00 | 0.00 | 0.00 | 45 | |
| 20260902203251 | 94 | 158 | 9.0 | 11.0 | 0.00 | 0.00 | 0.00 | 45 | |
| 20260902202745 | 93 | 153 | 6.0 | 8.0 | 0.00 | 0.00 | 0.00 | 46 | |
| 20260902202242 | 93 | 130 | 8.0 | 10.0 | 0.00 | 0.00 | 0.00 | 47 | |
| 20260902201738 | 93 | 135 | 8.0 | 10.0 | 0.00 | 0.00 | 0.00 | 45 | |
| 20260902201237 | 93 | 227 | 8.0 | 11.0 | 0.00 | 0.00 | 0.00 | 47 | |
| 20260902200733 | 95 | 212 | 12.0 | 14.0 | 0.00 | 0.00 | 0.00 | 46 | |
| 20260902200228 | 95 | 127 | 4.0 | 7.0 | 0.00 | 0.00 | 0.00 | 44 | |
| 20260902195724 | 94 | 126 | 4.0 | 6.0 | 0.00 | 0.00 | 0.00 | 46 | |
| 20260902195223 | 94 | 82 | 5.0 | 8.0 | 0.00 | 0.00 | 0.00 | 47 | |
| 20260902194723 | 94 | 75 | 5.0 | 9.0 | 0.00 | 0.00 | 0.00 | 46 | |
| 20260902194218 | 94 | 64 | 8.0 | 9.0 | 0.00 | 0.00 | 0.00 | 46 | |
| 20260902193713 | 94 | 112 | 5.0 | 7.0 | 0.00 | 0.00 | 0.00 | 46 | |
| 20260902193209 | 94 | 59 | 7.0 | 10.0 | 0.00 | 0.00 | 0.00 | 46 | |
| 20260902192707 | 95 | 82 | 6.0 | 9.0 | 0.00 | 0.00 | 0.00 | 46 | |
| 20260902192206 | 95 | 102 | 5.0 | 8.0 | 0.00 | 0.00 | 0.00 | 44 | |
| 20260902191701 | 95 | 76 | 4.0 | 5.0 | 0.00 | 0.00 | 0.00 | 45 | |
| 20260902191155 | 95 | 116 | 4.0 | 6.0 | 0.00 | 0.00 | 0.00 | 45 | |
| 20260902190651 | 96 | 93 | 4.0 | 6.0 | 0.00 | 0.00 | 0.00 | 44 | |
| 20260902190146 | 96 | 194 | 2.0 | 2.0 | 0.00 | 0.00 | 0.00 | 42 | |
| 20260902185641 | 95 | 9 | 2.0 | 2.0 | 0.00 | 0.00 | 0.00 | 42 | |
| 20260902185137 | 95 | 131 | 3.0 | 5.0 | 0.00 | 0.00 | 0.00 | 42 | |
| 20260902184632 | 95 | 6 | 1.0 | 2.0 | 0.00 | 0.00 | 0.00 | 43 | |
| 20260902184127 | 95 | 27 | 1.0 | 2.0 | 0.00 | 0.00 | 0.00 | 43 | |
| 20260902183623 | 95 | 225 | 5.0 | 8.0 | 0.00 | 0.00 | 0.00 | 44 | |
| 20260902183120 | 96 | 228 | 5.0 | 8.0 | 0.00 | 0.00 | 0.00 | 43 | |
| 20260902182615 | 98 | 346 | 4.0 | 5.0 | 0.00 | 0.00 | 0.00 | 41 | |
| 20260902182112 | 98 | 109 | 1.0 | 3.0 | 0.00 | 0.00 | 0.00 | 40 | |
| 20260902181608 | 97 | 129 | 3.0 | 8.0 | 0.00 | 0.00 | 0.00 | 41 | |
| 20260902181106 | 96 | 182 | 7.0 | 9.0 | 0.00 | 0.00 | 0.00 | 42 | |
| 20260902180601 | 96 | 192 | 8.0 | 9.0 | 0.00 | 0.00 | 0.00 | 42 | |
| 20260902180057 | 96 | 144 | 6.0 | 9.0 | 0.00 | 0.00 | 0.00 | 42 | |
| 20260902175557 | 97 | 206 | 9.0 | 11.0 | 0.00 | 0.00 | 0.00 | 42 | |
| 20260902175053 | 96 | 194 | 5.0 | 9.0 | 0.00 | 0.00 | 0.00 | 43 | |
| 20260902174549 | 95 | 231 | 3.0 | 7.0 | 0.00 | 0.00 | 0.00 | 44 | |
| 20260902174044 | 96 | 151 | 3.0 | 15.0 | 0.00 | 0.00 | 0.00 | 44 | |
| 20260902173544 | 95 | 348 | 1.0 | 5.0 | 0.00 | 0.00 | 0.00 | 44 | |
| 20260902173038 | 94 | 17 | 5.0 | 7.0 | 0.00 | 0.00 | 0.00 | 45 | |
| 20260902172533 | 95 | 171 | 4.0 | 7.0 | 0.00 | 0.00 | 0.00 | 44 | |
| 20260902172028 | 95 | 262 | 6.0 | 8.0 | 0.00 | 0.00 | 0.00 | 44 | |
| 20260902171524 | 95 | 265 | 4.0 | 6.0 | 0.00 | 0.00 | 0.00 | 45 | |
| 20260902171020 | 94 | 117 | 3.0 | 8.0 | 0.00 | 0.00 | 0.00 | 45 | |
| 20260902170514 | 94 | 137 | 3.0 | 6.0 | 0.00 | 0.00 | 0.00 | 45 | |
| 20260902170010 | 94 | 212 | 4.0 | 8.0 | 0.00 | 0.00 | 0.00 | 46 | |
| 20260902165509 | 94 | 107 | 4.0 | 9.0 | 0.00 | 0.00 | 0.00 | 46 | |
| 20260902165004 | 94 | 182 | 5.0 | 8.0 | 0.00 | 0.00 | 0.00 | 45 | |
| 20260902164459 | 94 | 223 | 3.0 | 8.0 | 0.00 | 0.00 | 0.00 | 45 |